Regional Weather Roundup
Issued by NWS Grand Forks, ND

Home | Current Version | Previous Version | Graphics & Text | Print | Product List | Glossary On
Versions: 1 2 3 4 5 6 7 8 9 10 11 12 13 14 15 16 17 18 19 20 21 22 23 24 25 26 27 28 29 30 31 32 33 34 35 36 37 38 39 40 41 42 43 44 45 46 47 48 49 50
000
ASUS43 KFGF 201910
RWRFGF
PRAIRIE TO PINES  WEATHER ROUNDUP
NATIONAL WEATHER SERVICE EASTERN NORTH DAKOTA/GRAND FORKS ND
200 PM CDT WED AUG 20 2014

 **SATELLITE DATA USED TO AUGMENT SKY COVER AT AUTOMATED STATIONS**
 *****  WEATHER ACROSS EASTERN NORTH DAKOTA  *****

CITY           SKY/WX    TMP DP  RH WIND       PRES   REMARKS
GRAND FORKS    PTSUNNY   82  67  60 SE13      29.77F
GRAND FRKS AFB PTSUNNY   83  69  64 SE15      29.78F
GRAND FRKS NWS   N/A     70 N/A N/A SE16        N/A
DEVILS LAKE    PTSUNNY   82  64  54 S17G24    29.75S
FARGO          CLOUDY    82  66  58 SE14      29.78S
WAHPETON ARPT  CLOUDY    79  64  61 S14       29.80S
$$

 ***** WEATHER ACROSS CENTRAL AND WESTERN NORTH DAKOTA  *****

CITY           SKY/WX    TMP DP  RH WIND       PRES   REMARKS
BISMARCK       CLOUDY    81  67  62 S7        29.72S
MINOT          PTSUNNY   82  66  58 E8        29.71S
JAMESTOWN      PTSUNNY   79  65  62 SE13      29.76S
MINOT AFB      PTSUNNY   84  68  59 E15       29.71R
GARRISON         N/A     74  66  76 SE10      29.73S
WILLISTON      CLOUDY    78  64  61 S9        29.72R
DICKINSON      LGT RAIN  71  67  87 N5        29.71S
HETTINGER      CLOUDY    76  64  66 SE9       29.72R
$$

 *****  OTHER AIRPORT OBSERVATIONS IN OUR AREA  *****

CITY           SKY/WX    TMP DP  RH WIND       PRES   REMARKS
WALHALLA       NOT AVBL
GRAFTON AIRPOR FAIR      82  66  57 SE17      29.77F
VALLEY CITY AR FAIR      82  66  57 SE14G21   29.78S
CANDO          FAIR      79  66  65 SE12G20   29.76R
CAVALIER APRT  FAIR      81  66  61 S14G20    29.76S
GWINNER        CLEAR     82  70  65 SE12G17   29.78F
SHEYENNE NWR     N/A     82  68  61 SE12      29.95S
ROLLA            N/A     72  61  68 N18       29.80F
 ***** THE ABOVE OBSERVATIONS ARE NON NWS ARE NOT QUALITY
       CONTROLLED AND MAY MIS-REPORT RAIN FOR SNOW...
$$

  *****  WEATHER ACROSS NORTHERN MINNESOTA  *****

CITY           SKY/WX    TMP DP  RH WIND       PRES   REMARKS
FLAG ISLAND    SUNNY     73  63  68 S7        29.85R
WARROAD        MOSUNNY   77  66  69 E10       29.84R
ROSEAU         SUNNY     81  64  57 SE8       29.82S
HALLOCK        MOSUNNY   82  66  57 SE15      29.77F
THF RVR FALLS  MOSUNNY   81  64  57 SE9       29.82S
BAUDETTE       SUNNY     77  61  57 VRB6      29.85S
WASKISH        PTSUNNY   75  63  64 CALM      29.86R
CROOKSTON      PTSUNNY   82  64  54 S10       29.80S
$$
  *****  WEATHER ACROSS CENTRAL AND WEST MINNESOTA  *****

CITY           SKY/WX    TMP DP  RH WIND       PRES   REMARKS
FOSSTON        MOSUNNY   81  64  57 SE3       29.83S
BEMIDJI        MOSUNNY   77  63  61 SE8       29.86S
PARK RAPIDS    PTSUNNY   78  62  57 SE9       29.85S
ELBOW LAKE     FAIR      80  67  64 SE10G17   29.82S
WADENA         PTSUNNY   77  64  65 SE9       29.85R
DETROIT LAKES  PTSUNNY   79  64  61 SE9       29.84S
MOORHEAD       PTSUNNY   82  70  65 SE9       29.80R
FERGUS FALLS   CLOUDY    81  63  54 S15       29.81S
MORRIS MN      CLOUDY    82  66  57 SE14      29.81S
STAPLES        PTSUNNY   75  63  64 S9        29.86R
$$
  *****  WEATHER ELSEWHERE ACROSS MINNESOTA  *****

CITY           SKY/WX    TMP DP  RH WIND       PRES   REMARKS
DULUTH         CLOUDY    70  58  65 E8        29.90S
INTRNTL FALLS  PTSUNNY   75  58  55 E10G17    29.87F
ELY            CLOUDY    68  59  73 CALM      29.91R
CLOQUET        CLOUDY    70  59  68 E6        29.90R
WHEATON        NOT AVBL
BRAINERD       PTSUNNY   74  63  68 SE8       29.88R
HIBBING        CLOUDY    74  58  57 SE7       29.89S
ALEXANDRIA     PTSUNNY   79  66  64 SE14      29.86S
SAINT CLOUD    PTSUNNY   82  64  54 SE10      29.86S
MINNEAPOLIS    PTSUNNY   80  64  58 SE8       29.86F
$$

  *****  WEATHER ACROSS SOUTH DAKOTA  *****

CITY           SKY/WX    TMP DP  RH WIND       PRES   REMARKS
SIOUX FALLS    MOSUNNY   81  68  64 SE13      29.78F
BROOKINGS      NOT AVBL
WATERTOWN      PTSUNNY   83  63  50 S14G23    29.79F
HURON          PTSUNNY   82  65  56 SE12      29.73S
SISSETON         N/A     82  68  62 S15G22    29.77F
ABERDEEN       MOSUNNY   86  66  51 SE18G24   29.74S
MITCHELL       MOSUNNY   84  71  65 S14G22    29.74R
PIERRE         CLOUDY    82  69  64 E13       29.68F
MOBRIDGE       CLOUDY    78  68  71 SE10      29.69F
RAPID CITY     MOSUNNY   85  59  41 SE9       29.74F
$$

  *****  SOME WEATHER IN NEARBY STATES *****

CITY           SKY/WX    TMP DP  RH WIND       PRES   REMARKS
GLASGOW MT     PTSUNNY   71  58  63 W9        29.76R
GREAT FALLS MT PTSUNNY   78  44  29 N10       29.82F
CHEYENNE WY    MOSUNNY   78  45  30 W26G37    30.00F
SCOTTSBLUFF NE SUNNY     90  54  29 NW17G25   29.83F
OMAHA NE       PTSUNNY   86  70  58 SE15G28   29.82F HX  90
DES MOINES IA  CLOUDY    78  69  73 S9        29.87R
DAVENPORT IA   CLOUDY    79  67  66 SE7       29.87F
CHICAGO IL     PTSUNNY   85  64  49 SW14      29.89F
EAU CLAIRE WI  MOSUNNY   76  62  62 NE8       29.88F
LA CROSSE WI   MOSUNNY   83  65  54 CALM      29.85F
$$

  *****  SOME NATIONAL WEATHER *****

CITY           SKY/WX    TMP DP  RH WIND       PRES   REMARKS
LA GUARDIA NY  MOSUNNY   82  57  42 VRB5      29.97F
RALEIGH NC     MOSUNNY   87  71  58 SE7       29.96F HX  93
ATLANTA GA     TSTM      81  72  74 SW30G49   30.06F
NEW ORLEANS LA PTSUNNY   90  77  65 NE14      30.06F THUNDER HX 103
OKLAHOMA CITY  SUNNY     94  62  34 S16G24    29.91F HX  94
ALBUQUERQUE NM MOSUNNY   82  49  31 NE9       30.09F
SALT LAKE CITY MOSUNNY   76  53  44 S14       30.00S
LOS ANGELES CA MOSUNNY   75  58  55 W5        29.94F
BOISE ID       CLOUDY    78  50  37 NW9       29.88S
SEATTLE WA     CLOUDY    65  50  58 SW10      29.99R
$$

*** WEATHER ACROSS MANITOBA...SASKATCHEWAN AND ONTARIO ***
                ***ONTARIO***

CITY           SKY/WX    TMP DP  RH WIND       PRES   REMARKS
GERALDTON      CLOUDY    64  59  82 E6        29.93R
THUNDER BAY    CLOUDY    68  61  77 VRB2      29.90S
SIOUX LOOKOUT  MOSUNNY   75  59  57 VRB6      29.89F
TORONTO        PTSUNNY   73  66  78 SE9       29.89F
BIG TROUT LK   SUNNY     77  55  47 SE7       29.91S
PICKLE LAKE    MOSUNNY   77  50  38 S3        29.91S
DRYDEN         CLOUDY    75  59  57 S6        29.89S
KENORA         PTSUNNY   75  61  60 SE8       29.88S
$$
                *** MANITOBA***

CITY           SKY/WX    TMP DP  RH WIND       PRES   REMARKS
BRANDON        TSTM      66  61  82 SW17G25   29.76R
DAUPHIN        SUNNY     81  66  61 S10G17    29.68R
ISLAND LAKE    MOSUNNY   82  59  44 E8        29.79F
PILOT MOUND      N/A     77  63  61 SW9G22      N/A
THE PAS        LGT RAIN N/A N/A N/A S13         N/A  SMOKE
THOMPSON       PTSUNNY   81  64  57 S13       29.70S
WINNIPEG       PTSUNNY   82  66  57 SE14G21   29.77S
LYNN LAKE      CLOUDY    59  57  94 MISG      29.71F
CHURCHILL      LGT RAIN  52  50  93 NE5       29.81F FOG
$$
                ***SASKATCHEWAN***

CITY           SKY/WX    TMP DP  RH WIND       PRES   REMARKS
ESTEVAN        CLOUDY    75  64  69 S3        29.69R
KINDERSLEY     PTSUNNY   70  55  60 N13       29.78R
LLOYDMINSTER   PTSUNNY   70  52  52 NW15      29.80R
PRINCE ALBERT  PTSUNNY   68  63  83 NE7       29.68S
REGINA         LGT RAIN  66  64  94 VRB2      29.71R
YORKTON        NOT AVBL
N. BATTLEFORD  MOSUNNY   72  59  64 NW16G23   29.75S
LA RONGE       LGT RAIN  64  63  94 N6        29.72R FOG
SASKATOON      PTSUNNY   72  61  68 N10G17    29.71S
SWIFT CURRENT  MOSUNNY   72  54  53 NW13G18   29.76R
$$
NOTE: THESE ARE AUTOMATED STATIONS WITH LIMITED QUALITY CONTROL
      "FAIR" INDICATES FEW OR NO CLOUDS BELOW 12,000 FEET WITH NO
      SIGNIFICANT WEATHER AND/OR OBSTRUCTIONS TO VISIBILITY.
      SKY/WX - SKY CONDITION AND SIGNIFICANT WEATHER.
      TMP - AIR TEMPERATURE.    DP   - DEWPOINT TEMPERATURE.
      RH  - RELATIVE HUMIDITY.  PRES - PRESSURE.
      HX  - HEAT INDEX.         WCI  - WIND CHILL INDEX.
$


USA.gov is the U.S. government's official web portal to all federal, state and local government web resources and services.